Location: Albany
(35.0170°S, 117.8920°E)
Time: 08:39:16
(UTC+08:00)

S-56A Canister/Altair - Pass Details

Date: 25 January 2021
Orbit: 632 x 2501 km, 38.9° (Epoch: 25 February)

Event Time Altitude Azimuth Distance (km) Brightness Sun altitude
Rises 11:05:42 0° 339° (NNW) 4,946 11.8 66.9°
Reaches altitude 10° 11:09:05 10° 348° (NNW) 4,212 11.6 67.4°
Maximum altitude 11:19:18 34° 47° (NE) 3,279 11.8 68.9°
Drops below altitude 10° 11:31:44 10° 103° (ESE) 5,167 12.0 70.6°
Sets 11:36:23 0° 111° (ESE) 6,191 12.2 71.1°
